When you browse on this site, cookies collect data to enhance your experience and personalize the content and advertising you see.
Visit our Privacy Policy to learn more. By continuing to use the site, you agree to this use of cookies and data.
  • In Österreich
  • Länderverzeichnis
  • Für 7 Tage
  • Wassertemperatur
  • Wetterkarte
  • News
  • Widgets
  • user-avatar
    Anmelden

    Stündliche Wetter Gori

    Heute, 17 Januar, Freitag

    Zeit Temperatur Niederschläge Wind Luftdruck Luftfeuchtigkeit
    00:00 -2°C° 0.1 mm 3 m/S 708 mmHg 86%
    01:00 -2°C° 0 mm 3 m/S 708 mmHg 85%
    02:00 -4°C° 0 mm 3 m/S 707 mmHg 84%
    03:00 -2°C° 0 mm 3 m/S 707 mmHg 82%
    04:00 -4°C° 0.1 mm 3 m/S 707 mmHg 82%
    05:00 -4°C° 0.1 mm 3 m/S 706 mmHg 82%
    06:00 -3°C° 0.1 mm 2 m/S 706 mmHg 82%
    07:00 -2°C° 0 mm 2 m/S 706 mmHg 80%
    08:00 -2°C° 0 mm 3 m/S 706 mmHg 78%
    09:00 -1°C° 0 mm 3 m/S 706 mmHg 75%
    10:00 0°C° 0 mm 3 m/S 705 mmHg 72%
    11:00 +1°C° 0 mm 3 m/S 705 mmHg 69%
    12:00 +1°C° 0 mm 3 m/S 704 mmHg 66%
    13:00 +2°C° 0 mm 3 m/S 704 mmHg 65%
    14:00 +2°C° 0 mm 3 m/S 703 mmHg 63%
    15:00 +2°C° 0 mm 3 m/S 703 mmHg 62%
    16:00 +2°C° 0 mm 2 m/S 703 mmHg 66%
    17:00 -1°C° 0 mm 2 m/S 703 mmHg 70%
    18:00 0°C° 0 mm 1 m/S 703 mmHg 74%
    19:00 0°C° 0 mm 1 m/S 703 mmHg 72%
    20:00 0°C° 0 mm 1 m/S 703 mmHg 70%
    21:00 0°C° 0 mm 1 m/S 703 mmHg 68%
    22:00 -1°C° 0 mm 1 m/S 703 mmHg 65%
    23:00 -1°C° 0 mm 1 m/S 702 mmHg 63%

    Morgen, 18 Januar, Samstag

    Zeit Temperatur Niederschläge Wind Luftdruck Luftfeuchtigkeit
    00:00 -1°C° 0 mm 1 m/S 702 mmHg 61%
    01:00 -3°C° 0 mm 2 m/S 702 mmHg 59%
    02:00 -3°C° 0 mm 2 m/S 702 mmHg 57%
    03:00 -3°C° 0 mm 2 m/S 701 mmHg 55%
    04:00 -3°C° 0 mm 2 m/S 701 mmHg 55%
    05:00 -3°C° 0 mm 2 m/S 701 mmHg 55%
    06:00 -4°C° 0 mm 2 m/S 701 mmHg 55%
    07:00 -3°C° 0 mm 2 m/S 701 mmHg 55%
    08:00 -2°C° 0 mm 2 m/S 702 mmHg 55%
    09:00 -2°C° 0 mm 2 m/S 702 mmHg 55%
    10:00 +1°C° 0 mm 2 m/S 702 mmHg 55%
    11:00 +2°C° 0 mm 2 m/S 701 mmHg 55%
    12:00 +2°C° 0 mm 3 m/S 701 mmHg 55%
    13:00 +2°C° 0 mm 3 m/S 701 mmHg 54%
    14:00 +3°C° 0 mm 2 m/S 701 mmHg 54%
    15:00 +4°C° 0 mm 2 m/S 701 mmHg 54%
    16:00 +2°C° 0 mm 2 m/S 701 mmHg 60%
    17:00 +2°C° 0 mm 1 m/S 701 mmHg 65%
    18:00 +1°C° 0 mm 1 m/S 701 mmHg 71%
    19:00 0°C° 0 mm 1 m/S 701 mmHg 69%
    20:00 0°C° 0 mm 1 m/S 701 mmHg 67%
    21:00 -1°C° 0 mm 0 m/S 701 mmHg 65%
    22:00 0°C° 0 mm 1 m/S 701 mmHg 65%
    23:00 0°C° 0 mm 1 m/S 701 mmHg 65%

    übermorgen, 19 Januar, Sonntag

    Zeit Temperatur Niederschläge Wind Luftdruck Luftfeuchtigkeit
    00:00 0°C° 0 mm 1 m/S 701 mmHg 64%
    01:00 -1°C° 0 mm 1 m/S 701 mmHg 65%
    02:00 -3°C° 0 mm 2 m/S 701 mmHg 65%
    03:00 -3°C° 0 mm 2 m/S 701 mmHg 65%
    04:00 -3°C° 0 mm 2 m/S 701 mmHg 66%
    05:00 -3°C° 0 mm 2 m/S 701 mmHg 67%
    06:00 -4°C° 0 mm 2 m/S 701 mmHg 68%
    07:00 -3°C° 0 mm 2 m/S 701 mmHg 66%
    08:00 -2°C° 0 mm 3 m/S 702 mmHg 65%
    09:00 -2°C° 0 mm 3 m/S 702 mmHg 64%
    10:00 -1°C° 0 mm 3 m/S 702 mmHg 64%
    11:00 -1°C° 0 mm 4 m/S 702 mmHg 63%
    12:00 0°C° 0 mm 4 m/S 702 mmHg 63%
    13:00 0°C° 0 mm 5 m/S 702 mmHg 63%
    14:00 0°C° 0 mm 5 m/S 702 mmHg 64%
    15:00 +1°C° 0 mm 5 m/S 701 mmHg 64%
    16:00 0°C° 0 mm 4 m/S 702 mmHg 69%
    17:00 -1°C° 0 mm 4 m/S 702 mmHg 75%
    18:00 -1°C° 0 mm 3 m/S 703 mmHg 81%
    19:00 -1°C° 0 mm 3 m/S 703 mmHg 82%
    20:00 -2°C° 0 mm 3 m/S 704 mmHg 84%
    21:00 -2°C° 0 mm 3 m/S 704 mmHg 85%
    22:00 -2°C° 0 mm 3 m/S 704 mmHg 85%
    23:00 -2°C° 0 mm 3 m/S 704 mmHg 85%

    20 Januar, Montag

    Zeit Temperatur Niederschläge Wind Luftdruck Luftfeuchtigkeit
    00:00 -2°C° 0 mm 3 m/S 704 mmHg 84%
    01:00 -2°C° 0 mm 3 m/S 704 mmHg 84%
    02:00 -4°C° 0 mm 3 m/S 705 mmHg 84%
    03:00 -4°C° 0 mm 3 m/S 705 mmHg 84%
    04:00 -4°C° 0 mm 3 m/S 705 mmHg 84%
    05:00 -3°C° 0 mm 2 m/S 705 mmHg 84%
    06:00 -3°C° 0 mm 2 m/S 705 mmHg 83%
    07:00 -3°C° 0 mm 2 m/S 705 mmHg 80%
    08:00 -2°C° 0 mm 2 m/S 705 mmHg 77%
    09:00 -2°C° 0 mm 2 m/S 705 mmHg 74%
    10:00 -1°C° 0 mm 3 m/S 705 mmHg 71%
    11:00 0°C° 0 mm 3 m/S 705 mmHg 68%
    12:00 +1°C° 0 mm 3 m/S 704 mmHg 65%
    13:00 +2°C° 0 mm 3 m/S 704 mmHg 65%
    14:00 +2°C° 0 mm 3 m/S 704 mmHg 65%
    15:00 +2°C° 0 mm 3 m/S 704 mmHg 65%
    16:00 +2°C° 0 mm 2 m/S 704 mmHg 70%
    17:00 +1°C° 0 mm 2 m/S 704 mmHg 75%
    18:00 0°C° 0 mm 1 m/S 704 mmHg 80%
    19:00 0°C° 0 mm 1 m/S 705 mmHg 80%
    20:00 0°C° 0 mm 1 m/S 705 mmHg 80%
    21:00 0°C° 0 mm 1 m/S 705 mmHg 81%
    22:00 0°C° 0 mm 1 m/S 705 mmHg 81%
    23:00 0°C° 0 mm 1 m/S 705 mmHg 82%

    21 Januar, Dienstag

    Zeit Temperatur Niederschläge Wind Luftdruck Luftfeuchtigkeit
    00:00 -1°C° 0 mm 1 m/S 705 mmHg 83%
    01:00 -1°C° 0 mm 1 m/S 705 mmHg 82%
    02:00 -1°C° 0 mm 1 m/S 705 mmHg 81%
    03:00 -3°C° 0 mm 2 m/S 705 mmHg 80%
    04:00 -3°C° 0 mm 2 m/S 705 mmHg 81%
    05:00 -3°C° 0 mm 2 m/S 704 mmHg 81%
    06:00 -3°C° 0 mm 2 m/S 704 mmHg 82%
    07:00 -2°C° 0 mm 3 m/S 705 mmHg 79%
    08:00 -2°C° 0 mm 3 m/S 705 mmHg 76%
    09:00 -1°C° 0 mm 3 m/S 705 mmHg 74%
    10:00 -1°C° 0 mm 4 m/S 705 mmHg 72%
    11:00 0°C° 0 mm 4 m/S 704 mmHg 70%
    12:00 +1°C° 0 mm 5 m/S 704 mmHg 69%
    13:00 +1°C° 0 mm 5 m/S 704 mmHg 68%
    14:00 +1°C° 0 mm 5 m/S 704 mmHg 68%
    15:00 +1°C° 0 mm 5 m/S 704 mmHg 68%
    16:00 0°C° 0 mm 4 m/S 704 mmHg 75%
    17:00 -1°C° 0 mm 4 m/S 704 mmHg 82%
    18:00 -1°C° 0 mm 3 m/S 705 mmHg 89%
    19:00 -1°C° 0.1 mm 3 m/S 705 mmHg 90%
    20:00 -1°C° 0.1 mm 3 m/S 706 mmHg 90%
    21:00 -2°C° 0.1 mm 3 m/S 706 mmHg 91%
    22:00 -2°C° 0.1 mm 3 m/S 706 mmHg 90%
    23:00 -2°C° 0.1 mm 2 m/S 706 mmHg 89%

    22 Januar, Mittwoch

    Zeit Temperatur Niederschläge Wind Luftdruck Luftfeuchtigkeit
    00:00 -2°C° 0.1 mm 2 m/S 706 mmHg 88%
    01:00 -2°C° 0 mm 2 m/S 706 mmHg 87%
    02:00 -1°C° 0 mm 1 m/S 706 mmHg 86%
    03:00 -1°C° 0 mm 1 m/S 706 mmHg 85%
    04:00 -1°C° 0 mm 1 m/S 706 mmHg 84%
    05:00 -1°C° 0 mm 1 m/S 706 mmHg 84%
    06:00 -1°C° 0 mm 1 m/S 706 mmHg 84%
    07:00 -1°C° 0 mm 1 m/S 706 mmHg 81%
    08:00 0°C° 0 mm 1 m/S 706 mmHg 79%
    09:00 0°C° 0 mm 1 m/S 706 mmHg 77%
    10:00 -1°C° 0 mm 2 m/S 706 mmHg 73%
    11:00 +1°C° 0 mm 2 m/S 705 mmHg 70%
    12:00 +1°C° 0 mm 3 m/S 705 mmHg 66%
    13:00 0°C° 0 mm 4 m/S 704 mmHg 66%
    14:00 0°C° 0 mm 4 m/S 704 mmHg 66%
    15:00 0°C° 0 mm 5 m/S 703 mmHg 66%
    16:00 -1°C° 0 mm 4 m/S 703 mmHg 73%
    17:00 -2°C° 0 mm 4 m/S 703 mmHg 80%
    18:00 -3°C° 0 mm 4 m/S 703 mmHg 87%
    19:00 -3°C° 0 mm 4 m/S 703 mmHg 86%
    20:00 -4°C° 0 mm 4 m/S 703 mmHg 85%
    21:00 -4°C° 0 mm 4 m/S 703 mmHg 84%
    22:00 -4°C° 0.1 mm 4 m/S 703 mmHg 82%
    23:00 -4°C° 0.1 mm 4 m/S 702 mmHg 81%
    Mehr zeigen